Weather History for KOGD - April, 2013

Change the Weather History Date:

Thursday, April 11, 2013

  Actual Average Record
Temperature  
Mean Temperature 48 °F -  
Max Temperature 55 °F 61 °F 80 °F (1934)
Min Temperature 42 °F 37 °F 25 °F (1988)
Degree Days  
Heating Degree Days 16    
Moisture  
Dew Point 35 °F    
Average Humidity 63    
Maximum Humidity 89    
Minimum Humidity 38    
Precipitation  
Precipitation 0.04 in - - ()
Sea Level Pressure  
Sea Level Pressure 29.90 in    
Wind  
Wind Speed 6 mph (South)    
Max Wind Speed 13 mph    
Max Gust Speed 21 mph    
Visibility 10 miles    
Events Rain    
Averages and records for this station are not official NWS values.
T = Trace of Precipitation, MM = Missing Value Source: NWS Daily Summary

Daily Weather History Graph

Daily Weather History Graph

Search for Another Location

Airport or City:

Trip Planner

Search our weather history database for the weather conditions in past years. The results will help you decide how hot, cold, wet, or windy it might be!

Date:

Astronomy

Apr. 11, 2013 Rise Set
Actual Time 6:54 AM MDT 8:04 PM MDT
Civil Twilight 6:26 AM MDT 8:32 PM MDT
Nautical Twilight 5:52 AM MDT 9:06 PM MDT
Astronomical Twilight 5:16 AM MDT 9:42 PM MDT
Moon 7:27 AM MDT (4/11) 9:43 PM MDT (4/11)
Length of Visible Light 14h 06m
Length of Day
13h 09m
New Moon, 2% of the Moon is Illuminated
Apr 11
New Moon
Apr 18
First Quarter
Apr 25
Full
May 2
Last Quarter
May 9
New

Hourly Weather History & Observations

Time (MDT) Temp. Windchill Dew Point Humidity Pressure Visibility Wind Dir Wind Speed Gust Speed Precip Events Conditions
12:53 AM 46.9 °F - 30.0 °F 52% 29.93 in 10.0 mi Calm Calm - 0.00 in Rain Light Rain
1:53 AM 46.0 °F 41.4 °F 30.9 °F 56% 29.90 in 10.0 mi South 9.2 mph - 0.00 in   Overcast
2:53 AM 45.0 °F 40.1 °F 35.1 °F 68% 29.88 in 10.0 mi SSE 9.2 mph - 0.00 in Rain Light Rain
3:44 AM 42.8 °F 37.0 °F 37.4 °F 81% 29.94 in 8.0 mi South 10.4 mph - 0.01 in Rain Light Rain
3:53 AM 42.1 °F 36.1 °F 37.9 °F 85% 29.89 in 10.0 mi South 10.4 mph - 0.01 in Rain Light Rain
4:36 AM 42.8 °F 38.0 °F 39.2 °F 87% 29.94 in 8.0 mi SE 8.1 mph - 0.00 in Rain Light Rain
4:53 AM 42.1 °F 36.6 °F 39.0 °F 89% 29.88 in 10.0 mi South 9.2 mph - 0.00 in Rain Light Rain
5:53 AM 44.1 °F 40.8 °F 39.0 °F 82% 29.87 in 10.0 mi SSE 5.8 mph - 0.00 in   Overcast
6:53 AM 44.1 °F 39.5 °F 39.0 °F 82% 29.88 in 10.0 mi South 8.1 mph - 0.02 in Rain Light Rain
7:01 AM 44.6 °F 40.2 °F 39.2 °F 81% 29.93 in 10.0 mi South 8.1 mph - 0.00 in Rain Light Rain
7:53 AM 43.0 °F 38.8 °F 39.0 °F 86% 29.91 in 10.0 mi South 6.9 mph - 0.01 in   Overcast
8:53 AM 45.0 °F 41.8 °F 39.9 °F 82% 29.92 in 10.0 mi SSE 5.8 mph - N/A   Overcast
9:50 AM 46.4 °F 42.9 °F 39.2 °F 76% 29.97 in 10.0 mi Variable 6.9 mph - N/A   Overcast
9:53 AM 46.9 °F - 39.0 °F 74% 29.92 in 10.0 mi North 5.8 mph - N/A   Overcast
11:53 AM 50.0 °F - 36.0 °F 59% 29.93 in 10.0 mi Variable 4.6 mph - N/A   Partly Cloudy
12:53 PM 52.0 °F - 35.1 °F 53% 29.91 in 10.0 mi Calm Calm - N/A   Scattered Clouds
1:53 PM 53.1 °F - 33.1 °F 47% 29.90 in 10.0 mi SSW 5.8 mph - N/A   Scattered Clouds
2:53 PM 55.0 °F - 33.1 °F 43% 29.90 in 10.0 mi West 12.7 mph 20.7 mph N/A   Overcast
3:53 PM 53.1 °F - 32.0 °F 45% 29.90 in 10.0 mi WSW 10.4 mph - N/A   Overcast
4:53 PM 54.0 °F - 32.0 °F 43% 29.88 in 10.0 mi SSW 9.2 mph - N/A   Mostly Cloudy
5:53 PM 53.1 °F - 30.0 °F 41% 29.86 in 10.0 mi SW 10.4 mph - N/A   Partly Cloudy
6:53 PM 53.1 °F - 28.0 °F 38% 29.86 in 10.0 mi SW 6.9 mph - N/A   Clear
7:53 PM 48.9 °F - 28.9 °F 46% 29.87 in 10.0 mi SSW 5.8 mph - N/A   Clear
8:53 PM 48.9 °F - 28.0 °F 44% 29.87 in 10.0 mi South 3.5 mph - N/A   Clear
9:53 PM 46.0 °F 43.1 °F 32.0 °F 58% 29.88 in 10.0 mi South 5.8 mph - N/A   Clear
10:53 PM 46.0 °F 43.1 °F 30.9 °F 56% 29.88 in 10.0 mi South 5.8 mph - N/A   Clear
11:53 PM 46.0 °F 43.9 °F 30.9 °F 56% 29.88 in 10.0 mi SSE 4.6 mph - N/A   Clear